TimeEST,TemperatureF,Dew PointF,Humidity,Sea Level PressureIn,VisibilityMPH,Wind Direction,Wind SpeedMPH,Gust SpeedMPH,PrecipitationIn,Events,Conditions,WindDirDegrees,DateUTC
1:56 AM,46.0,34.0,63,29.79,10.0,West,15.0,-,N/A,,Scattered Clouds,280,2013-02-28 06:56:00
2:56 AM,44.1,30.9,60,29.78,10.0,West,18.4,23.0,N/A,,Clear,280,2013-02-28 07:56:00
3:56 AM,43.0,30.9,62,29.78,10.0,West,10.4,-,N/A,,Clear,270,2013-02-28 08:56:00
4:56 AM,41.0,30.0,65,29.78,10.0,West,9.2,-,N/A,,Clear,260,2013-02-28 09:56:00
5:56 AM,39.9,27.0,60,29.80,10.0,WNW,10.4,-,N/A,,Clear,290,2013-02-28 10:56:00
6:56 AM,39.0,24.1,55,29.81,10.0,West,12.7,-,N/A,,Clear,270,2013-02-28 11:56:00
7:56 AM,42.1,26.1,53,29.83,10.0,West,9.2,-,N/A,,Mostly Cloudy,260,2013-02-28 12:56:00
8:56 AM,43.0,27.0,53,29.85,10.0,West,12.7,-,N/A,,Overcast,260,2013-02-28 13:56:00
9:56 AM,44.1,28.0,53,29.85,10.0,West,11.5,18.4,N/A,,Overcast,270,2013-02-28 14:56:00
10:56 AM,44.1,28.0,53,29.85,10.0,West,15.0,23.0,N/A,,Overcast,270,2013-02-28 15:56:00
11:56 AM,48.0,28.9,48,29.86,10.0,West,15.0,24.2,N/A,,Clear,260,2013-02-28 16:56:00
12:56 PM,48.9,28.0,44,29.84,10.0,West,19.6,25.3,N/A,,Partly Cloudy,270,2013-02-28 17:56:00
1:56 PM,48.9,28.0,44,29.83,10.0,West,16.1,23.0,N/A,,Partly Cloudy,270,2013-02-28 18:56:00
2:56 PM,48.9,27.0,43,29.83,10.0,WSW,19.6,25.3,N/A,,Overcast,250,2013-02-28 19:56:00
3:56 PM,48.9,27.0,43,29.86,10.0,West,18.4,25.3,N/A,,Partly Cloudy,280,2013-02-28 20:56:00
4:56 PM,46.0,27.0,47,29.87,10.0,West,20.7,26.5,N/A,,Scattered Clouds,280,2013-02-28 21:56:00
5:56 PM,43.0,25.0,49,29.89,10.0,West,17.3,26.5,N/A,,Clear,270,2013-02-28 22:56:00
6:56 PM,39.9,25.0,55,29.91,10.0,WNW,16.1,-,N/A,,Clear,290,2013-02-28 23:56:00
7:56 PM,39.0,25.0,57,29.92,10.0,West,12.7,-,N/A,,Clear,280,2013-03-01 00:56:00
8:56 PM,37.0,25.0,62,29.92,10.0,West,11.5,-,N/A,,Clear,280,2013-03-01 01:56:00
9:56 PM,36.0,25.0,64,29.93,10.0,WNW,10.4,-,N/A,,Clear,290,2013-03-01 02:56:00
10:56 PM,35.1,25.0,67,29.93,10.0,WNW,5.8,-,N/A,,Clear,290,2013-03-01 03:56:00
11:56 PM,35.1,25.0,67,29.92,10.0,West,4.6,-,N/A,,Clear,280,2013-03-01 04:56:00